| time (UTC) | temp F | wind direction | speed knots | gust knots | rain 1hr in | rain 24hr in | rain mn in | humidity % | barometer mb |
| 20260901080518 | 64 | 0 | 13.0 | 20.9 | 0.00 | 0.24 | 0.01 | 92 | 1015.4 |
| 20260901075518 | 65 | 0 | 14.8 | 20.0 | 0.00 | 0.24 | 0.01 | 93 | 1015.2 |
| 20260901074518 | 64 | 0 | 14.8 | 18.2 | 0.00 | 0.24 | 0.01 | 94 | 1015.2 |
| 20260901073518 | 64 | 0 | 11.3 | 13.9 | 0.00 | 0.24 | 0.01 | 96 | 1015.1 |
| 20260901072518 | 63 | 0 | 9.6 | 13.0 | 0.00 | 0.24 | 0.01 | 96 | 1015.0 |
| 20260901071518 | 62 | 0 | 10.4 | 14.8 | 0.00 | 0.24 | 0.01 | 97 | 1015.0 |
| 20260901070518 | 62 | 0 | 10.4 | 13.0 | 0.00 | 0.24 | 0.01 | 97 | 1014.9 |
| 20260901065518 | 61 | 0 | 11.3 | 14.8 | 0.00 | 0.24 | 0.01 | 98 | 1014.9 |
| 20260901064518 | 61 | 0 | 11.3 | 14.8 | 0.00 | 0.24 | 0.01 | 98 | 1014.8 |
| 20260901063518 | 61 | 0 | 12.2 | 16.5 | 0.00 | 0.24 | 0.01 | 98 | 1014.7 |
| 20260901062518 | 61 | 0 | 9.6 | 12.2 | 0.00 | 0.24 | 0.01 | 98 | 1014.6 |
| 20260901061558 | 60 | 0 | 8.7 | 11.3 | 0.00 | 0.24 | 0.01 | 98 | 1014.5 |
| 20260901060518 | 60 | 0 | 11.3 | 14.8 | 0.00 | 0.24 | 0.01 | 98 | 1014.4 |
| 20260901055518 | 60 | 0 | 9.6 | 12.2 | 0.00 | 0.24 | 0.01 | 98 | 1014.3 |
| 20260901054517 | 60 | 0 | 10.4 | 13.0 | 0.00 | 0.24 | 0.01 | 98 | 1014.2 |
| 20260901053538 | 60 | 0 | 10.4 | 13.9 | 0.00 | 0.24 | 0.01 | 99 | 1014.1 |
| 20260901052518 | 60 | 0 | 9.6 | 13.0 | 0.00 | 0.24 | 0.01 | 98 | 1013.9 |
| 20260901051518 | 59 | 0 | 10.4 | 13.0 | 0.00 | 0.24 | 0.01 | 98 | 1013.8 |
| 20260901050518 | 59 | 0 | 9.6 | 13.9 | 0.00 | 0.24 | 0.01 | 99 | 1013.9 |
| 20260901045518 | 59 | 0 | 7.8 | 11.3 | 0.00 | 0.24 | 0.01 | 98 | 1013.7 |
| 20260901044517 | 59 | 0 | 8.7 | 11.3 | 0.00 | 0.24 | 0.01 | 99 | 1013.6 |
| 20260901043517 | 59 | 0 | 10.4 | 13.0 | 0.00 | 0.24 | 0.01 | 99 | 1013.5 |
| 20260901042517 | 59 | 0 | 8.7 | 11.3 | 0.00 | 0.24 | 0.01 | 99 | 1013.5 |
| 20260901041517 | 59 | 0 | 8.7 | 11.3 | 0.00 | 0.24 | 0.01 | 99 | 1013.4 |
| 20260901040518 | 59 | 0 | 7.8 | 12.2 | 0.01 | 0.24 | 0.01 | 99 | 1013.3 |
| 20260901035517 | 59 | 0 | 7.8 | 10.4 | 0.01 | 0.24 | 0.01 | 98 | 1013.2 |
| 20260901034557 | 59 | 0 | 7.8 | 10.4 | 0.01 | 0.24 | 0.01 | 98 | 1013.2 |
| 20260901033517 | 59 | 0 | 7.8 | 11.3 | 0.01 | 0.24 | 0.01 | 98 | 1013.2 |
| 20260901032517 | 59 | 0 | 8.7 | 10.4 | 0.01 | 0.24 | 0.01 | 98 | 1013.2 |
| 20260901031518 | 59 | 0 | 7.8 | 10.4 | 0.01 | 0.24 | 0.01 | 98 | 1013.0 |
| 20260901030537 | 59 | 0 | 7.0 | 8.7 | 0.00 | 0.23 | 0.00 | 98 | 1013.0 |
| 20260901025517 | 59 | 0 | 6.1 | 9.6 | 0.00 | 0.23 | 0.00 | 98 | 1012.9 |
| 20260901024517 | 59 | 0 | 7.0 | 10.4 | 0.00 | 0.23 | 0.00 | 98 | 1012.9 |
| 20260901023517 | 59 | 0 | 7.0 | 10.4 | 0.00 | 0.23 | 0.00 | 98 | 1013.0 |
| 20260901022517 | 59 | 0 | 7.0 | 9.6 | 0.00 | 0.23 | 0.00 | 98 | 1012.8 |
| 20260901021517 | 59 | 0 | 7.0 | 9.6 | 0.00 | 0.23 | 0.00 | 98 | 1013.0 |
| 20260901020537 | 58 | 0 | 7.0 | 11.3 | 0.00 | 0.23 | 0.00 | 98 | 1012.9 |
| 20260901015517 | 58 | 0 | 7.0 | 10.4 | 0.00 | 0.23 | 0.00 | 98 | 1012.7 |
| 20260901014517 | 58 | 0 | 8.7 | 10.4 | 0.00 | 0.23 | 0.00 | 98 | 1012.6 |
| 20260901013517 | 58 | 0 | 7.8 | 10.4 | 0.00 | 0.23 | 0.00 | 98 | 1012.4 |
| 20260901012517 | 58 | 0 | 8.7 | 11.3 | 0.00 | 0.23 | 0.00 | 98 | 1012.3 |
| 20260901011517 | 58 | 0 | 7.8 | 10.4 | 0.00 | 0.23 | 0.00 | 98 | 1012.3 |
| 20260901010517 | 58 | 0 | 6.1 | 8.7 | 0.00 | 0.23 | 0.00 | 98 | 1012.3 |
| 20260901005517 | 58 | 0 | 8.7 | 10.4 | 0.00 | 0.23 | 0.00 | 98 | 1012.4 |
| 20260901004537 | 58 | 0 | 7.0 | 9.6 | 0.00 | 0.23 | 0.00 | 97 | 1012.3 |
| 20260901003517 | 58 | 0 | 8.7 | 11.3 | 0.00 | 0.23 | 0.00 | 98 | 1012.2 |
| 20260901002517 | 58 | 0 | 7.8 | 10.4 | 0.00 | 0.23 | 0.00 | 98 | 1012.2 |
| 20260901001517 | 58 | 0 | 7.8 | 10.4 | 0.00 | 0.23 | 0.00 | 98 | 1012.1 |
| 20260901000517 | 58 | 0 | 6.1 | 9.6 | 0.00 | 0.23 | 0.00 | 97 | 1012.0 |
| 20260831235517 | 58 | 0 | 7.8 | 10.4 | 0.00 | 0.23 | 0.00 | 97 | 1012.0 |
| 20260831234537 | 58 | 0 | 6.1 | 9.6 | 0.00 | 0.23 | 0.00 | 97 | 1011.9 |
| 20260831233537 | 58 | 0 | 5.2 | 8.7 | 0.00 | 0.23 | 0.00 | 97 | 1011.9 |
| 20260831232517 | 57 | 0 | 4.3 | 9.6 | 0.00 | 0.23 | 0.00 | 97 | 1011.9 |
| 20260831231517 | 57 | 0 | 5.2 | 9.6 | 0.00 | 0.23 | 0.00 | 97 | 1011.7 |
| 20260831230537 | 57 | 0 | 5.2 | 9.6 | 0.00 | 0.23 | 0.00 | 97 | 1011.7 |
| 20260831225517 | 57 | 0 | 7.0 | 11.3 | 0.00 | 0.23 | 0.00 | 97 | 1011.7 |
| 20260831224537 | 57 | 0 | 7.0 | 10.4 | 0.00 | 0.23 | 0.00 | 97 | 1011.7 |
| 20260831223517 | 57 | 0 | 5.2 | 9.6 | 0.00 | 0.23 | 0.00 | 97 | 1011.7 |
| 20260831222517 | 57 | 0 | 5.2 | 8.7 | 0.00 | 0.23 | 0.00 | 97 | 1011.8 |
| 20260831221517 | 57 | 225 | 4.3 | 9.6 | 0.00 | 0.23 | 0.00 | 97 | 1011.7 |
| 20260831220516 | 56 | 225 | 3.5 | 7.8 | 0.00 | 0.23 | 0.00 | 97 | 1011.8 |
| 20260831215517 | 56 | 225 | 2.6 | 4.3 | 0.00 | 0.23 | 0.23 | 96 | 1011.7 |
| 20260831214536 | 56 | 0 | 3.5 | 7.0 | 0.00 | 0.23 | 0.23 | 96 | 1011.7 |
| 20260831213516 | 56 | 0 | 3.5 | 7.0 | 0.00 | 0.23 | 0.23 | 96 | 1011.5 |
| 20260831212516 | 56 | 0 | 3.5 | 7.8 | 0.00 | 0.23 | 0.23 | 96 | 1011.5 |
| 20260831211516 | 56 | 0 | 4.3 | 9.6 | 0.00 | 0.23 | 0.23 | 96 | 1011.4 |
| 20260831210517 | 56 | 0 | 5.2 | 7.8 | 0.00 | 0.23 | 0.23 | 96 | 1011.3 |
| 20260831205517 | 56 | 0 | 4.3 | 8.7 | 0.00 | 0.24 | 0.23 | 96 | 1011.2 |
| 20260831204516 | 56 | 225 | 3.5 | 8.7 | 0.00 | 0.24 | 0.23 | 96 | 1011.1 |
| 20260831203516 | 56 | 0 | 4.3 | 7.8 | 0.00 | 0.24 | 0.23 | 95 | 1011.0 |
| 20260831202517 | 57 | 0 | 4.3 | 7.0 | 0.00 | 0.24 | 0.23 | 96 | 1011.0 |
| 20260831201536 | 57 | 0 | 4.3 | 8.7 | 0.00 | 0.24 | 0.23 | 95 | 1010.9 |
| 20260831200517 | 57 | 0 | 6.1 | 9.6 | 0.00 | 0.24 | 0.23 | 95 | 1010.8 |
| 20260831195517 | 57 | 0 | 7.0 | 12.2 | 0.00 | 0.24 | 0.23 | 95 | 1010.6 |
| 20260831194517 | 58 | 0 | 6.1 | 10.4 | 0.00 | 0.24 | 0.23 | 95 | 1010.5 |
| 20260831193516 | 58 | 0 | 7.0 | 10.4 | 0.00 | 0.24 | 0.23 | 95 | 1010.5 |
| 20260831192516 | 58 | 0 | 6.1 | 12.2 | 0.00 | 0.24 | 0.23 | 95 | 1010.5 |
| 20260831191516 | 59 | 0 | 5.2 | 10.4 | 0.00 | 0.24 | 0.23 | 95 | 1010.6 |
| 20260831190517 | 59 | 0 | 4.3 | 8.7 | 0.00 | 0.24 | 0.23 | 95 | 1010.6 |
| 20260831185516 | 59 | 0 | 6.1 | 11.3 | 0.00 | 0.25 | 0.23 | 95 | 1010.7 |
| 20260831184518 | 59 | 0 | 4.3 | 9.6 | 0.00 | 0.25 | 0.23 | 95 | 1010.5 |
| 20260831183518 | 59 | 0 | 6.1 | 11.3 | 0.00 | 0.25 | 0.23 | 95 | 1010.4 |
| 20260831182518 | 59 | 0 | 5.2 | 9.6 | 0.00 | 0.25 | 0.23 | 95 | 1010.4 |
| 20260831181518 | 60 | 0 | 4.3 | 7.8 | 0.00 | 0.25 | 0.23 | 96 | 1010.1 |
| 20260831180538 | 60 | 0 | 4.3 | 7.0 | 0.00 | 0.25 | 0.23 | 96 | 1010.0 |
| 20260831175517 | 60 | 225 | 3.5 | 7.0 | 0.01 | 0.28 | 0.23 | 96 | 1009.9 |
| 20260831174518 | 61 | 203 | 1.7 | 4.3 | 0.02 | 0.28 | 0.23 | 96 | 1009.8 |
| 20260831173519 | 60 | 225 | 2.6 | 3.5 | 0.06 | 0.28 | 0.23 | 95 | 1009.7 |
| 20260831172518 | 61 | 203 | 1.7 | 4.3 | 0.07 | 0.28 | 0.23 | 95 | 1009.6 |
| 20260831171518 | 61 | 0 | 2.6 | 7.0 | 0.09 | 0.28 | 0.23 | 95 | 1009.5 |
| 20260831170518 | 61 | 0 | 3.5 | 7.8 | 0.12 | 0.28 | 0.23 | 96 | 1009.6 |
| 20260831165518 | 60 | 0 | 4.3 | 9.6 | 0.13 | 0.29 | 0.22 | 95 | 1010.2 |
| 20260831164518 | 60 | 0 | 6.1 | 10.4 | 0.13 | 0.28 | 0.21 | 94 | 1010.3 |
| 20260831163518 | 61 | 0 | 6.1 | 7.8 | 0.16 | 0.24 | 0.17 | 94 | 1010.0 |
| 20260831162518 | 61 | 203 | 2.6 | 5.2 | 0.15 | 0.23 | 0.16 | 93 | 1009.5 |
| 20260831161538 | 60 | 180 | 0.9 | 3.5 | 0.13 | 0.21 | 0.14 | 93 | 1009.3 |
| 20260831160518 | 60 | 0 | 4.3 | 8.7 | 0.09 | 0.17 | 0.10 | 92 | 1009.7 |
| 20260831155518 | 62 | 0 | 8.7 | 12.2 | 0.08 | 0.16 | 0.09 | 92 | 1009.6 |
| 20260831154538 | 64 | 0 | 14.8 | 20.9 | 0.07 | 0.15 | 0.08 | 86 | 1009.6 |
| 20260831153518 | 70 | 0 | 7.8 | 12.2 | 0.00 | 0.08 | 0.01 | 71 | 1008.9 |
| 20260831152518 | 70 | 0 | 7.8 | 9.6 | 0.00 | 0.08 | 0.01 | 71 | 1008.7 |
| 20260831151518 | 72 | 0 | 7.8 | 13.9 | 0.00 | 0.08 | 0.01 | 68 | 1008.3 |
| 20260831150518 | 72 | 0 | 10.4 | 16.5 | 0.00 | 0.08 | 0.01 | 63 | 1008.6 |
| 20260831145518 | 74 | 0 | 13.9 | 22.6 | 0.00 | 0.08 | 0.01 | 61 | 1008.7 |
| 20260831144518 | 75 | 0 | 12.2 | 20.0 | 0.00 | 0.08 | 0.01 | 60 | 1008.8 |
| 20260831143518 | 75 | 0 | 12.2 | 20.9 | 0.00 | 0.08 | 0.01 | 59 | 1008.8 |
| 20260831142518 | 77 | 0 | 12.2 | 20.0 | 0.00 | 0.08 | 0.01 | 60 | 1008.6 |
| 20260831141518 | 76 | 0 | 9.6 | 18.2 | 0.00 | 0.08 | 0.01 | 63 | 1008.5 |
| 20260831140538 | 75 | 0 | 10.4 | 19.1 | 0.00 | 0.08 | 0.01 | 64 | 1008.6 |
| 20260831135518 | 75 | 0 | 10.4 | 20.9 | 0.00 | 0.08 | 0.01 | 63 | 1008.4 |
| 20260831134518 | 78 | 0 | 9.6 | 18.2 | 0.00 | 0.08 | 0.01 | 62 | 1008.4 |
| 20260831133518 | 77 | 0 | 9.6 | 16.5 | 0.00 | 0.08 | 0.01 | 62 | 1008.3 |
| 20260831132538 | 76 | 0 | 8.7 | 17.4 | 0.00 | 0.08 | 0.01 | 64 | 1008.4 |
| 20260831131518 | 77 | 0 | 10.4 | 17.4 | 0.00 | 0.08 | 0.01 | 61 | 1008.6 |
| 20260831130518 | 78 | 0 | 9.6 | 16.5 | 0.00 | 0.08 | 0.01 | 62 | 1008.5 |
| 20260831125517 | 77 | 0 | 9.6 | 18.2 | 0.00 | 0.08 | 0.01 | 65 | 1008.5 |
| 20260831124538 | 75 | 0 | 10.4 | 16.5 | 0.00 | 0.08 | 0.01 | 64 | 1008.6 |
| 20260831123517 | 77 | 0 | 8.7 | 18.2 | 0.00 | 0.08 | 0.01 | 66 | 1008.5 |
| 20260831122517 | 76 | 0 | 9.6 | 15.6 | 0.00 | 0.08 | 0.01 | 64 | 1008.7 |
| 20260831121538 | 76 | 0 | 10.4 | 16.5 | 0.00 | 0.08 | 0.01 | 68 | 1008.8 |
| 20260831120517 | 77 | 0 | 8.7 | 13.9 | 0.00 | 0.08 | 0.01 | 70 | 1008.8 |
| 20260831115538 | 75 | 0 | 10.4 | 20.0 | 0.00 | 0.08 | 0.01 | 71 | 1008.9 |
| 20260831114518 | 75 | 0 | 11.3 | 17.4 | 0.00 | 0.08 | 0.01 | 72 | 1009.0 |
| 20260831113517 | 73 | 0 | 9.6 | 14.8 | 0.00 | 0.08 | 0.01 | 79 | 1008.9 |
| 20260831112518 | 71 | 0 | 9.6 | 15.6 | 0.00 | 0.08 | 0.01 | 74 | 1009.0 |
| 20260831111518 | 74 | 0 | 11.3 | 20.0 | 0.00 | 0.08 | 0.01 | 71 | 1009.1 |
| 20260831110518 | 74 | 0 | 10.4 | 15.6 | 0.01 | 0.08 | 0.01 | 74 | 1009.0 |
| 20260831105517 | 75 | 0 | 7.0 | 12.2 | 0.01 | 0.08 | 0.01 | 73 | 1009.0 |
| 20260831104517 | 74 | 0 | 8.7 | 16.5 | 0.01 | 0.08 | 0.01 | 73 | 1009.1 |
| 20260831103517 | 74 | 0 | 9.6 | 17.4 | 0.01 | 0.08 | 0.01 | 72 | 1009.2 |
| 20260831102517 | 74 | 0 | 6.1 | 12.2 | 0.01 | 0.08 | 0.01 | 73 | 1009.3 |
| 20260831101517 | 72 | 0 | 7.0 | 12.2 | 0.01 | 0.08 | 0.01 | 75 | 1009.3 |
| 20260831100537 | 73 | 0 | 8.7 | 15.6 | 0.00 | 0.07 | 0.00 | 75 | 1009.4 |
| 20260831095517 | 73 | 0 | 12.2 | 15.6 | 0.00 | 0.07 | 0.00 | 77 | 1009.4 |
| 20260831094557 | 74 | 0 | 7.8 | 13.9 | 0.00 | 0.07 | 0.00 | 78 | 1009.5 |
| 20260831093517 | 72 | 0 | 7.0 | 12.2 | 0.00 | 0.07 | 0.00 | 80 | 1009.5 |
| 20260831092517 | 72 | 0 | 5.2 | 11.3 | 0.00 | 0.07 | 0.00 | 82 | 1009.5 |
| 20260831091517 | 71 | 0 | 6.1 | 12.2 | 0.00 | 0.07 | 0.00 | 81 | 1009.5 |
| 20260831090538 | 69 | 0 | 5.2 | 9.6 | 0.00 | 0.07 | 0.00 | 82 | 1009.5 |
| 20260831085517 | 69 | 0 | 5.2 | 9.6 | 0.00 | 0.07 | 0.00 | 86 | 1009.6 |
| 20260831084517 | 67 | 0 | 3.5 | 7.8 | 0.00 | 0.07 | 0.00 | 87 | 1009.6 |
| 20260831083517 | 66 | 0 | 3.5 | 8.7 | 0.00 | 0.07 | 0.00 | 88 | 1009.6 |
| 20260831082537 | 65 | 0 | 3.5 | 7.8 | 0.00 | 0.07 | 0.00 | 89 | 1009.4 |
| 20260831081517 | 65 | 0 | 5.2 | 11.3 | 0.00 | 0.07 | 0.00 | 88 | 1009.6 |